Weather History for Osceola Municipal, IA

Change the Weather History Date:

Thursday, September 19, 2013

  Actual Average (KLWD) Record (KLWD)
Temperature  
Mean Temperature 75 °F 64 °F  
Max Temperature 87 °F 75 °F 96 °F (1948)
Min Temperature 63 °F 53 °F 32 °F (1991)
Degree Days  
Heating Degree Days 0 3  
Month to date heating degree days 33  
Since 1 July heating degree days 41  
Cooling Degree Days 10 2  
Month to date cooling degree days 76  
Year to date cooling degree days 914  
Growing Degree Days 25 (Base 50)    
Moisture  
Dew Point 65 °F    
Average Humidity 79    
Maximum Humidity 94    
Minimum Humidity 49    
Precipitation  
Precipitation 0.48 in 0.10 in 4.15 in (2010)
Month to date precipitation 2.41  
Sea Level Pressure  
Sea Level Pressure 29.83 in    
Wind  
Wind Speed 10 mph (SSW)    
Max Wind Speed 25 mph    
Max Gust Speed 43 mph    
Visibility 10 miles    
Events Rain    
T = Trace of Precipitation, MM = Missing Value Source: NWS Daily Summary

Daily Weather History Graph

Daily Weather History Graph

Search for Another Location

Airport:

Trip Planner

Search our weather history database for the weather conditions in past years. The results will help you decide how hot, cold, wet, or windy it might be!

Date:

Astronomy

Sep. 19, 2013 Rise Set
Actual Time 6:59 AM CDT 7:16 PM CDT
Civil Twilight 6:32 AM CDT 7:44 PM CDT
Nautical Twilight 5:59 AM CDT 8:16 PM CDT
Astronomical Twilight 5:26 AM CDT 8:49 PM CDT
Moon 7:14 PM CDT (9/19) 7:09 AM CDT (9/19)
Length of Visible Light 13h 12m
Length of Day
12h 17m
Full, 100% of the Moon is Illuminated
Sep 19
Full
Sep 26
Last Quarter
Oct 4
New
Oct 11
First Quarter
Oct 18
Full

Hourly Weather History & Observations

Time (CDT) Temp. Heat Index Dew Point Humidity Pressure Visibility Wind Dir Wind Speed Gust Speed Precip Events Conditions
12:15 AM 74.7 °F - 67.5 °F 78% 29.83 in 10.0 mi South 11.5 mph 18.4 mph N/A   Clear
12:35 AM 75.2 °F - 67.5 °F 77% 29.83 in 10.0 mi South 11.5 mph 19.6 mph N/A   Clear
12:55 AM 75.6 °F - 67.5 °F 76% 29.83 in 10.0 mi South 12.7 mph 20.7 mph N/A   Clear
1:15 AM 75.2 °F - 67.3 °F 76% 29.83 in 10.0 mi South 13.8 mph 20.7 mph N/A   Clear
1:35 AM 74.8 °F - 67.3 °F 77% 29.83 in 10.0 mi South 12.7 mph 19.6 mph N/A   Clear
1:55 AM 74.3 °F - 67.3 °F 79% 29.84 in 10.0 mi South 12.7 mph 17.3 mph N/A   Clear
2:15 AM 73.8 °F - 67.1 °F 80% 29.83 in 10.0 mi South 13.8 mph 19.6 mph N/A   Clear
2:35 AM 73.4 °F - 67.1 °F 81% 29.83 in 10.0 mi South 10.4 mph 18.4 mph N/A   Clear
2:55 AM 73.4 °F - 67.1 °F 81% 29.83 in 10.0 mi South 9.2 mph 16.1 mph N/A   Clear
3:15 AM 73.0 °F - 66.9 °F 81% 29.83 in 10.0 mi South 9.2 mph - N/A   Clear
3:35 AM 72.7 °F - 66.7 °F 82% 29.83 in 10.0 mi South 9.2 mph - N/A   Clear
3:55 AM 72.3 °F - 66.7 °F 83% 29.83 in 10.0 mi South 9.2 mph - N/A   Clear
4:15 AM 72.0 °F - 66.6 °F 83% 29.83 in 10.0 mi South 9.2 mph - N/A   Clear
4:35 AM 72.0 °F - 66.4 °F 83% 29.83 in 10.0 mi South 10.4 mph - N/A   Clear
4:55 AM 71.8 °F - 66.4 °F 83% 29.82 in 10.0 mi South 10.4 mph 18.4 mph N/A   Clear
5:15 AM 72.0 °F - 66.2 °F 82% 29.82 in 10.0 mi South 10.4 mph 18.4 mph N/A   Clear
5:35 AM 72.1 °F - 65.8 °F 80% 29.82 in 10.0 mi South 13.8 mph 18.4 mph N/A   Clear
5:55 AM 71.8 °F - 65.7 °F 81% 29.82 in 10.0 mi South 12.7 mph 17.3 mph N/A   Clear
6:15 AM 71.4 °F - 65.5 °F 81% 29.82 in 10.0 mi South 10.4 mph 17.3 mph N/A   Clear
6:35 AM 71.4 °F - 65.5 °F 81% 29.83 in 10.0 mi South 10.4 mph 19.6 mph N/A   Clear
6:55 AM 71.4 °F - 65.3 °F 81% 29.83 in 10.0 mi South 11.5 mph 17.3 mph N/A   Clear
7:15 AM 71.8 °F - 65.3 °F 80% 29.83 in 10.0 mi South 10.4 mph 20.7 mph N/A   Clear
7:35 AM 72.5 °F - 65.3 °F 78% 29.82 in 10.0 mi South 13.8 mph 20.7 mph N/A   Scattered Clouds
7:55 AM 72.9 °F - 65.3 °F 77% 29.82 in 10.0 mi South 13.8 mph 18.4 mph N/A   Scattered Clouds
8:15 AM 73.8 °F - 65.1 °F 74% 29.82 in 10.0 mi South 13.8 mph 23.0 mph N/A   Mostly Cloudy
8:35 AM 74.7 °F - 65.1 °F 72% 29.82 in 10.0 mi South 15.0 mph 21.9 mph N/A   Mostly Cloudy
8:55 AM 74.7 °F - 65.1 °F 72% 29.83 in 10.0 mi SSW 11.5 mph 23.0 mph N/A   Scattered Clouds
9:15 AM 75.9 °F - 65.3 °F 70% 29.83 in 10.0 mi South 13.8 mph 19.6 mph N/A   Mostly Cloudy
9:35 AM 76.1 °F - 65.3 °F 69% 29.85 in 10.0 mi SSW 10.4 mph - N/A   Mostly Cloudy
9:55 AM 72.9 °F - 66.7 °F 81% 29.85 in 7.0 mi SSW 8.1 mph 17.3 mph 0.04 in Rain Light Rain
10:15 AM 75.2 °F - 67.6 °F 77% 29.86 in 10.0 mi SSW 10.4 mph 17.3 mph N/A Rain Light Rain
10:35 AM 77.2 °F - 67.3 °F 71% 29.86 in 10.0 mi SW 10.4 mph 18.4 mph N/A   Mostly Cloudy
10:55 AM 77.2 °F - 67.1 °F 71% 29.86 in 10.0 mi South 8.1 mph - N/A   Mostly Cloudy
11:15 AM 75.6 °F - 67.5 °F 76% 29.88 in 10.0 mi SSW 9.2 mph - N/A   Mostly Cloudy
11:35 AM 73.0 °F - 66.6 °F 80% 29.86 in 7.0 mi SSW 9.2 mph - N/A Rain Light Rain
11:55 AM 73.0 °F - 67.3 °F 82% 29.86 in 10.0 mi SSW 10.4 mph - N/A   Scattered Clouds
12:15 PM 75.2 °F - 67.5 °F 77% 29.85 in 10.0 mi SSW 8.1 mph - N/A   Clear
12:35 PM 77.0 °F - 67.5 °F 72% 29.85 in 10.0 mi SSW 11.5 mph - N/A   Clear
12:55 PM 80.8 °F 83.6 °F 68.4 °F 66% 29.84 in 10.0 mi SSW 10.4 mph - N/A   Clear
1:15 PM 83.3 °F 86.2 °F 67.5 °F 59% 29.84 in 10.0 mi SW 15.0 mph - N/A   Clear
1:35 PM 84.2 °F 86.6 °F 66.4 °F 55% 29.84 in 10.0 mi SSW 12.7 mph 17.3 mph N/A   Clear
1:55 PM 84.9 °F 86.6 °F 65.1 °F 51% 29.82 in 10.0 mi SSW 10.4 mph 18.4 mph N/A   Scattered Clouds
2:15 PM 84.9 °F 87.4 °F 66.4 °F 54% 29.81 in 10.0 mi SSW 10.4 mph - N/A   Mostly Cloudy
2:35 PM 85.6 °F 87.9 °F 66.2 °F 52% 29.78 in 10.0 mi SSE 6.9 mph 16.1 mph N/A   Mostly Cloudy
2:55 PM 86.7 °F 88.7 °F 65.7 °F 49% 29.76 in 10.0 mi South 10.4 mph - N/A   Scattered Clouds
3:15 PM 86.0 °F 87.9 °F 65.7 °F 50% 29.75 in 10.0 mi South 9.2 mph 16.1 mph N/A   Mostly Cloudy
3:35 PM 86.0 °F 87.6 °F 64.8 °F 49% 29.74 in 10.0 mi South 15.0 mph 19.6 mph N/A   Overcast
3:55 PM 85.6 °F 87.1 °F 64.6 °F 49% 29.73 in 10.0 mi South 8.1 mph 17.3 mph N/A   Mostly Cloudy
4:15 PM 85.1 °F 86.9 °F 64.9 °F 51% 29.73 in 10.0 mi South 5.8 mph - N/A   Overcast
4:35 PM 82.6 °F 84.9 °F 66.6 °F 58% 29.81 in 10.0 mi West 25.3 mph 42.6 mph N/A   Overcast
4:55 PM 64.8 °F - 61.0 °F 88% 29.83 in 5.0 mi West 18.4 mph 27.6 mph 0.12 in Rain Heavy Rain
5:15 PM 64.0 °F - 61.2 °F 90% 29.84 in 5.0 mi WNW 15.0 mph 20.7 mph 0.10 in Rain Rain
5:35 PM 64.4 °F - 61.9 °F 92% 29.84 in 10.0 mi Calm Calm - 0.11 in Rain Light Rain
5:55 PM 64.8 °F - 62.2 °F 92% 29.84 in 7.0 mi ENE 3.5 mph - 0.14 in Rain Rain
6:15 PM 64.6 °F - 62.6 °F 93% 29.82 in 10.0 mi ENE 4.6 mph - 0.04 in Rain Light Rain
6:35 PM 64.6 °F - 62.6 °F 93% 29.82 in 7.0 mi East 4.6 mph - 0.08 in Rain Rain
6:55 PM 64.4 °F - 62.4 °F 93% 29.82 in 7.0 mi East 3.5 mph - 0.11 in Rain Light Rain
7:15 PM 64.4 °F - 62.4 °F 93% 29.83 in 7.0 mi Calm Calm - 0.03 in Rain Rain
7:35 PM 64.4 °F - 62.6 °F 94% 29.82 in 7.0 mi Calm Calm - 0.06 in Rain Light Rain
7:55 PM 64.4 °F - 62.6 °F 94% 29.84 in 10.0 mi West 6.9 mph - 0.07 in Rain Light Rain
8:15 PM 64.6 °F - 62.8 °F 94% 29.86 in 10.0 mi WSW 4.6 mph - N/A   Overcast
8:35 PM 64.8 °F - 63.0 °F 94% 29.87 in 10.0 mi WSW 5.8 mph - N/A   Overcast
8:55 PM 64.4 °F - 62.6 °F 94% 29.88 in 10.0 mi SSW 4.6 mph - N/A   Mostly Cloudy
9:15 PM 64.4 °F - 62.6 °F 94% 29.87 in 10.0 mi SW 3.5 mph - N/A   Scattered Clouds
9:35 PM 64.4 °F - 62.6 °F 94% 29.88 in 10.0 mi SSW 4.6 mph - N/A   Clear
9:55 PM 64.4 °F - 62.6 °F 94% 29.88 in 10.0 mi SSW 3.5 mph - N/A   Mostly Cloudy
10:15 PM 64.4 °F - 62.6 °F 94% 29.87 in 10.0 mi SSW 5.8 mph - N/A   Overcast
10:35 PM 64.6 °F - 62.8 °F 94% 29.88 in 10.0 mi SW 6.9 mph - N/A   Overcast
10:55 PM 64.8 °F - 63.0 °F 94% 29.89 in 10.0 mi SW 6.9 mph - N/A   Overcast
11:15 PM 64.8 °F - 63.0 °F 94% 29.89 in 10.0 mi Calm Calm - N/A   Overcast
11:35 PM 64.6 °F - 62.4 °F 93% 29.90 in 10.0 mi WSW 3.5 mph - N/A   Mostly Cloudy
11:55 PM 63.9 °F - 60.4 °F 89% 29.90 in 10.0 mi NW 5.8 mph - N/A   Clear